Zurück zum Katalog

LEMUR-2 CLARA

AktivWissenschaftSSO
NORAD 68483·PAYLOAD·🇱🇺 Luxembourg

Gestartet Mar 30, 2026 von Vandenberg Space Force Base

Loading…

Nächste Überflüge (nächste 24 Stunden)

TLE

AktuellSource: Space-Track

Epoche: Sep 14, 2026, 03:34 UTC

1 68483U 26067BV  26257.14865691  .00003044  00000-0  29651-3 0  9999
2 68483  97.7735 214.4117 0003447  23.2884 336.8491 14.93232348 25004

Verfolge LEMUR-2 CLARA in Echtzeit mit AllMySat

Download on the App Store